Ireland West Airport Knock, Ireland

1:46 AM IST on April 24, 2017 (GMT +0100)
Connaught

Weather History for EIKN - August, 2013

Change the Weather History Date:

Saturday, August 24, 2013

  Actual Average Record
Temperature  
Mean Temperature 54 °F -  
Max Temperature 59 °F - - ()
Min Temperature 49 °F - - ()
Degree Days  
Heating Degree Days 11    
Growing Degree Days 4 (Base 50)    
Moisture  
Dew Point 52 °F    
Average Humidity 91    
Maximum Humidity 100    
Minimum Humidity 72    
Precipitation  
Precipitation 0.04 in - - ()
Sea Level Pressure  
Sea Level Pressure 29.97 in    
Wind  
Wind Speed 6 mph ()    
Max Wind Speed 13 mph    
Max Gust Speed -    
Visibility 5.6 miles    
Events Rain    
T = Trace of Precipitation, MM = Missing Value Source: Averaged Metar Reports

Daily Weather History Graph

Daily Weather History Graph

Search for Another Location

Airport or City:

Trip Planner

Search our weather history database for the weather conditions in past years. The results will help you decide how hot, cold, wet, or windy it might be!

Date:

Astronomy

Aug. 24, 2013 Rise Set
Actual Time 6:29 AM IST 8:44 PM IST
Civil Twilight 5:51 AM IST 9:22 PM IST
Nautical Twilight 5:02 AM IST 10:11 PM IST
Astronomical Twilight 4:04 AM IST 11:08 PM IST
Moon 9:43 PM IST 10:58 AM IST
Length of Visible Light 15h 31m
Length of Day
14h 14m
Waning Gibbous, 86% of the Moon is Illuminated
Aug 24
Waning Gibbous
Aug 28
Last Quarter
Sep 5
New
Sep 12
First Quarter
Sep 19
Full

Hourly Weather History & Observations

Time (IST) Temp. Dew Point Humidity Pressure Visibility Wind Dir Wind Speed Gust Speed Precip Events Conditions
1:00 AM 50 °F 47 °F 86% 30.03 in - WSW 4.5 mph - -  
6:00 AM 50.0 °F 48.2 °F 94% 30.01 in 6.2 mi SW 3.5 mph - N/A   Mostly Cloudy
7:00 AM 51 °F 50 °F 94% 30.04 in 25 mi SW 4.5 mph - -   Mostly Cloudy
7:00 AM 51.8 °F 50.0 °F 94% 30.01 in 6.2 mi SW 3.5 mph - N/A   Scattered Clouds
7:30 AM 50.0 °F 50.0 °F 100% 30.01 in 6.2 mi SW 3.5 mph - N/A   Mostly Cloudy
8:00 AM 51.8 °F 50.0 °F 94% 30.01 in 6.2 mi SW 2.3 mph - N/A   Mostly Cloudy
8:30 AM 51.8 °F 50.0 °F 94% 30.01 in 6.2 mi SSW 3.5 mph - N/A   Mostly Cloudy
9:00 AM 53.6 °F 48.2 °F 82% 30.01 in 6.2 mi SSW 4.6 mph - N/A   Mostly Cloudy
9:30 AM 53.6 °F 50.0 °F 88% 30.01 in 6.2 mi South 5.8 mph - N/A   Mostly Cloudy
10:00 AM 55.4 °F 50.0 °F 82% 30.01 in 6.2 mi South 5.8 mph - N/A   Mostly Cloudy
10:30 AM 55.4 °F 46.4 °F 72% 30.01 in 6.2 mi SSW 9.2 mph - N/A   Mostly Cloudy
11:00 AM 55.4 °F 48.2 °F 77% 29.98 in 6.2 mi SSW 8.1 mph - N/A   Mostly Cloudy
11:30 AM 55.4 °F 50.0 °F 82% 30.01 in 6.2 mi SSW 6.9 mph - N/A   Mostly Cloudy
12:00 PM 57.2 °F 50.0 °F 77% 29.98 in 6.2 mi SSW 8.1 mph - N/A   Overcast
12:30 PM 57.2 °F 51.8 °F 82% 29.98 in 6.2 mi SSW 6.9 mph - N/A Rain Light Rain
1:00 PM 57 °F 52 °F 79% 29.99 in 6 mi South 8.9 mph - - Rain Light Rain
1:00 PM 57.2 °F 51.8 °F 82% 29.98 in 6.2 mi South 8.1 mph - N/A Rain Light Rain
1:30 PM 55.4 °F 53.6 °F 94% 29.98 in 5.0 mi South 9.2 mph - N/A Rain Light Rain
2:00 PM 57.2 °F 55.4 °F 94% 29.95 in 6.2 mi South 10.4 mph - N/A Rain Light Rain
2:30 PM 55.4 °F 55.4 °F 100% 29.95 in 6.2 mi South 11.5 mph - N/A   Light Drizzle
3:00 PM 57.2 °F 55.4 °F 94% 29.95 in 6.2 mi South 12.7 mph - N/A   Overcast
3:30 PM 57.2 °F 55.4 °F 94% 29.92 in 3.7 mi South 11.5 mph - N/A   Light Drizzle
4:00 PM 55.4 °F 55.4 °F 100% 29.92 in 1.9 mi South 9.2 mph - N/A Rain Light Rain
4:30 PM 55.4 °F 55.4 °F 100% 29.92 in 1.9 mi South 12.7 mph - N/A   Light Drizzle
5:00 PM 55.4 °F 55.4 °F 100% 29.92 in 2.5 mi South 11.5 mph - N/A   Light Drizzle
5:30 PM 55.4 °F 55.4 °F 100% 29.92 in 6.2 mi South 9.2 mph - N/A   Light Drizzle
6:00 PM 57.2 °F 55.4 °F 94% 29.89 in 5.0 mi South 5.8 mph - N/A   Light Drizzle
7:00 PM 59 °F 58 °F 97% 29.91 in 7 mi WSW 8.9 mph - - Rain Light Drizzle
7:00 PM 59.0 °F 59.0 °F 100% 29.89 in 6.2 mi WSW 9.2 mph - N/A   Light Drizzle